Location: Cary
(35.7910°N, 78.7810°W)
Time: 08:48:17
(UTC-05:00)

Envisat - Visible Passes

Search period start: 25 February 2018 00:00
Search period end: 07 March 2018 00:00
Orbit: 764 x 766 km, 98.2° (Epoch: 25 February)

Date Brightness Start Highest point End Pass type
(mag) Time Alt. Az. Time Alt. Az. Time Alt. Az.
25 Feb 2.8 19:44:12 10° SSE 19:49:16 83° ENE 19:54:22 10° N visible
26 Feb 3.5 19:08:07 10° SE 19:12:42 35° ENE 19:17:17 10° N visible
26 Feb 5.2 20:47:48 10° SSW 20:51:44 23° W 20:55:43 10° NW visible
27 Feb 4.5 18:33:19 10° ESE 18:36:20 16° ENE 18:39:20 10° NNE visible
27 Feb 3.6 20:09:55 10° S 20:14:51 54° W 20:19:50 10° NNW visible
28 Feb 2.9 19:33:09 10° SSE 19:38:09 65° ENE 19:43:11 10° N visible
28 Feb 5.9 21:15:37 10° WSW 21:17:33 12° W 21:19:30 10° WNW visible
01 Mar 3.9 18:57:23 10° SE 19:01:39 28° ENE 19:05:55 10° NNE visible
01 Mar 4.8 20:36:10 10° SSW 20:40:32 29° W 20:44:56 10° NW visible
02 Mar 3.2 19:58:40 10° S 20:03:42 70° WSW 20:08:47 10° NNW visible
03 Mar 3.1 19:22:11 10° SSE 19:27:04 50° ENE 19:31:58 10° N visible
03 Mar 5.6 21:03:16 10° SW 21:06:19 16° W 21:09:23 10° NW visible
04 Mar 4.2 18:46:46 10° ESE 18:50:37 22° ENE 18:54:28 10° NNE visible
04 Mar 4.3 20:24:40 10° SSW 20:29:21 37° W 20:34:04 10° NNW visible
05 Mar 2.9 19:47:30 10° SSE 19:52:34 89° W 19:57:40 10° NNW visible
06 Mar 3.4 19:11:19 10° SE 19:15:59 39° ENE 19:20:41 10° N visible
06 Mar 5.3 20:51:21 10° SW 20:55:05 21° W 20:58:51 10° NW visible
